This is the latest recevied weather packets stored in our database for station/object wb2ifs-13. If no packets are shown the sender has not sent any weather packets the latest 10 day(s).
| Time | Temp. | Humidity | Pressure | Rain* | Wind** | Luminosity | Snow |
|---|---|---|---|---|---|---|---|
| 1777518899 | 12.22° C | 94% | 1008.5 hPa | 0.25 mm | - | - | - |
| 1777518001 | 12.22° C | 94% | 1008.2 hPa | 0.25 mm | - | - | - |
| 1777517099 | 12.22° C | 94% | 1008.3 hPa | 0 mm | - | - | - |
| 1777516199 | 12.22° C | 94% | 1008.4 hPa | 0 mm | - | - | - |
| 1777515300 | 12.22° C | 94% | 1008.5 hPa | 0 mm | - | - | - |
| 1777514399 | 12.22° C | 95% | 1008.4 hPa | 0 mm | - | - | - |
| 1777513499 | 12.22° C | 95% | 1008.7 hPa | 0 mm | - | - | - |
| 1777512599 | 12.22° C | 95% | 1008.9 hPa | 0 mm | - | - | - |
| 1777511699 | 12.22° C | 95% | 1008.8 hPa | 0 mm | - | - | - |
| 1777510801 | 12.22° C | 95% | 1008.6 hPa | 0 mm | - | - | - |
| 1777509901 | 12.22° C | 95% | 1008.5 hPa | 0 mm | - | - | - |
| 1777509001 | 12.22° C | 95% | 1008.4 hPa | 0 mm | - | - | - |
| 1777508100 | 12.78° C | 95% | 1008.4 hPa | 0 mm | - | - | - |
| 1777507201 | 12.78° C | 96% | 1008.8 hPa | 0 mm | - | - | - |
| 1777506299 | 13.33° C | 96% | 1008.7 hPa | 0.25 mm | - | - | - |
| 1777505399 | 13.33° C | 96% | 1008.8 hPa | 0.51 mm | - | - | - |
| 1777504499 | 13.89° C | 96% | 1009 hPa | 1.27 mm | - | - | - |
| 1777503599 | 13.89° C | 96% | 1008.7 hPa | 2.03 mm | - | - | - |
| 1777502699 | 13.89° C | 96% | 1008.7 hPa | 1.78 mm | - | - | - |
| 1777501803 | 13.89° C | 95% | 1008.6 hPa | 1.52 mm | - | - | - |
| 1777500900 | 13.89° C | 94% | 1008.5 hPa | 0.76 mm | - | - | - |
| 1777499999 | 14.44° C | 94% | 1009.2 hPa | 0 mm | - | - | - |
| 1777499100 | 14.44° C | 93% | 1009.2 hPa | 0 mm | - | - | - |
| 1777498199 | 14.44° C | 93% | 1009.1 hPa | 0 mm | - | - | - |
| 1777497298 | 14.44° C | 93% | 1009.2 hPa | 0 mm | - | - | - |
* Rain latest hour (hover to see other rain measurements)
** Current wind speed in m/s (hover to see current wind gust speed)